STARLINK-33827 (63798 NORAD) Tracking and Keplerian Element Data

This shows tracking and keplerian element data for the satellite.

Feedback or suggestion? Click here.




ElementValue
Catalog63798
NameSTARLINK-33827
Epoch Orbit3668
Epoch Day353.79953497
Epoch Year2025
RAAN143.7362
Inclination43.0013
Eccentricity0.0001725
Argument of Perigee275.386
Mean Anonmoly84.6795
Mean Motion15.27585839
Decay Rate0.00013502
L11 63798U 25091Z 25353.79953497 .00013502 00000+0 49918-3 0 9995
L22 63798 43.0013 143.7362 0001725 275.3860 84.6795 15.27585839 36683



Live tracking and technical data element details for STARLINK-33827 (NORAD 63798). STARLINK-33827 can be tracked NOW for your location showing map with azimuth and elevation plus other details from your city location.







IsCatalogInMostPopularTable: catalog: 63798, numindb: 4
Update: records affected: 1



GetName: 63798 STARLINK-33827

Hit Count: updated at: Sat, 11 Apr 2026 21:37:07 GMT